Tracking 35055 objects as of 18-Aug-2026
HD Live streaming from Space Station
objects crossing your sky now

ONEWEB-0274

Track ONEWEB-0274 now!
10-day predictions
ONEWEB-0274 is classified as:


NORAD ID: 48992
Int'l Code: 2021-061AB
Launch date: July 1, 2021
Source: United Kingdom (UK)
Launch site: VOSTOCHNY COSMODROME (VOSTO)
Your satellite tracking list
Your tracking list is empty




NASA's NSSDC Master Catalog

Two Line Element Set (TLE):
1 48992U 21060AB  26230.25402476  .00000075  00000-0  16191-3 0  9997
2 48992  87.9086 216.4514 0002144  94.9465 265.1911 13.16593257247799
Source of the keplerian elements: AFSPC